When you browse on this site, cookies collect data to enhance your experience and personalize the content and advertising you see.
Visit our Privacy Policy to learn more. By continuing to use the site, you agree to this use of cookies and data.
  • In Hungary
  • List of Countries
  • For 7 days
  • Water Temperature
  • Satellite Maps
  • Weather Map
  • News
  • Weather Widgets
  • user-avatar
    Login

    Hourly Weather Twentynine Palms

    Today, 26 June, Wednesday

    Time Temperature Precipitation Wind Pressure Humidity
    00:00 +26°C° 0 mm 1 mps 698 mmHg 29%
    01:00 +25°C° 0 mm 1 mps 698 mmHg 30%
    02:00 +24°C° 0 mm 1 mps 697 mmHg 30%
    03:00 +24°C° 0 mm 1 mps 697 mmHg 30%
    04:00 +21°C° 0 mm 0 mps 697 mmHg 30%
    05:00 +25°C° 0 mm 1 mps 698 mmHg 27%
    06:00 +26°C° 0 mm 1 mps 699 mmHg 24%
    07:00 +28°C° 0 mm 1 mps 699 mmHg 21%
    08:00 +29°C° 0 mm 2 mps 700 mmHg 18%
    09:00 +31°C° 0 mm 3 mps 700 mmHg 16%
    10:00 +33°C° 0 mm 4 mps 700 mmHg 13%
    11:00 +34°C° 0 mm 5 mps 700 mmHg 12%
    12:00 +35°C° 0 mm 6 mps 700 mmHg 10%
    13:00 +36°C° 0 mm 7 mps 700 mmHg 9%
    14:00 +36°C° 0 mm 7 mps 699 mmHg 10%
    15:00 +36°C° 0 mm 7 mps 699 mmHg 11%
    16:00 +36°C° 0 mm 7 mps 699 mmHg 13%
    17:00 +34°C° 0 mm 6 mps 699 mmHg 16%
    18:00 +33°C° 0 mm 5 mps 699 mmHg 20%
    19:00 +30°C° 0 mm 4 mps 698 mmHg 24%
    20:00 +29°C° 0 mm 4 mps 699 mmHg 24%
    21:00 +28°C° 0 mm 3 mps 699 mmHg 25%
    22:00 +27°C° 0 mm 2 mps 700 mmHg 25%
    23:00 +26°C° 0 mm 2 mps 699 mmHg 26%

    Tomorrow, 27 June, Thursday

    Time Temperature Precipitation Wind Pressure Humidity
    00:00 +25°C° 0 mm 1 mps 699 mmHg 28%
    01:00 +24°C° 0 mm 1 mps 699 mmHg 29%
    02:00 +24°C° 0 mm 1 mps 699 mmHg 30%
    03:00 +23°C° 0 mm 1 mps 699 mmHg 31%
    04:00 +20°C° 0 mm 0 mps 699 mmHg 32%
    05:00 +22°C° 0 mm 0 mps 700 mmHg 28%
    06:00 +24°C° 0 mm 0 mps 700 mmHg 25%
    07:00 +27°C° 0 mm 1 mps 701 mmHg 22%
    08:00 +29°C° 0 mm 1 mps 701 mmHg 19%
    09:00 +30°C° 0 mm 2 mps 701 mmHg 16%
    10:00 +33°C° 0 mm 3 mps 702 mmHg 13%
    11:00 +34°C° 0 mm 4 mps 701 mmHg 11%
    12:00 +35°C° 0 mm 5 mps 701 mmHg 10%
    13:00 +38°C° 0 mm 6 mps 701 mmHg 8%
    14:00 +38°C° 0 mm 6 mps 701 mmHg 8%
    15:00 +38°C° 0 mm 6 mps 700 mmHg 9%
    16:00 +38°C° 0 mm 6 mps 700 mmHg 10%
    17:00 +35°C° 0 mm 6 mps 700 mmHg 12%
    18:00 +33°C° 0 mm 5 mps 699 mmHg 15%
    19:00 +32°C° 0 mm 5 mps 699 mmHg 18%
    20:00 +29°C° 0 mm 4 mps 699 mmHg 18%
    21:00 +28°C° 0 mm 3 mps 700 mmHg 19%
    22:00 +27°C° 0 mm 1 mps 700 mmHg 20%
    23:00 +26°C° 0 mm 1 mps 699 mmHg 20%

    Day after tomorrow, 28 June, Friday

    Time Temperature Precipitation Wind Pressure Humidity
    00:00 +25°C° 0 mm 1 mps 699 mmHg 20%
    01:00 +24°C° 0 mm 1 mps 699 mmHg 20%
    02:00 +23°C° 0 mm 1 mps 699 mmHg 22%
    03:00 +23°C° 0 mm 1 mps 699 mmHg 23%
    04:00 +22°C° 0 mm 1 mps 699 mmHg 25%
    05:00 +24°C° 0 mm 1 mps 699 mmHg 21%
    06:00 +26°C° 0 mm 1 mps 700 mmHg 18%
    07:00 +28°C° 0 mm 1 mps 700 mmHg 15%
    08:00 +29°C° 0 mm 1 mps 701 mmHg 13%
    09:00 +31°C° 0 mm 2 mps 701 mmHg 11%
    10:00 +34°C° 0 mm 2 mps 701 mmHg 8%
    11:00 +35°C° 0 mm 4 mps 701 mmHg 7%
    12:00 +37°C° 0 mm 5 mps 701 mmHg 5%
    13:00 +39°C° 0 mm 6 mps 701 mmHg 4%
    14:00 +39°C° 0 mm 7 mps 700 mmHg 5%
    15:00 +39°C° 0 mm 7 mps 700 mmHg 5%
    16:00 +38°C° 0 mm 8 mps 699 mmHg 6%
    17:00 +35°C° 0 mm 7 mps 699 mmHg 8%
    18:00 +34°C° 0 mm 6 mps 699 mmHg 10%
    19:00 +32°C° 0 mm 5 mps 699 mmHg 13%
    20:00 +29°C° 0 mm 4 mps 699 mmHg 14%
    21:00 +28°C° 0 mm 3 mps 700 mmHg 15%
    22:00 +27°C° 0 mm 2 mps 700 mmHg 16%
    23:00 +26°C° 0 mm 2 mps 700 mmHg 16%

    29 June, Saturday

    Time Temperature Precipitation Wind Pressure Humidity
    00:00 +26°C° 0 mm 2 mps 700 mmHg 16%
    01:00 +25°C° 0 mm 1 mps 700 mmHg 16%
    02:00 +25°C° 0 mm 1 mps 700 mmHg 16%
    03:00 +25°C° 0 mm 1 mps 700 mmHg 16%
    04:00 +25°C° 0 mm 2 mps 700 mmHg 16%
    05:00 +26°C° 0 mm 2 mps 700 mmHg 15%
    06:00 +27°C° 0 mm 2 mps 701 mmHg 14%
    07:00 +28°C° 0 mm 2 mps 701 mmHg 12%
    08:00 +29°C° 0 mm 2 mps 701 mmHg 12%
    09:00 +30°C° 0 mm 2 mps 701 mmHg 11%
    10:00 +31°C° 0 mm 3 mps 702 mmHg 11%
    11:00 +33°C° 0 mm 4 mps 701 mmHg 14%
    12:00 +34°C° 0 mm 6 mps 701 mmHg 18%
    13:00 +35°C° 0 mm 7 mps 701 mmHg 21%
    14:00 +35°C° 0 mm 8 mps 701 mmHg 21%
    15:00 +35°C° 0 mm 8 mps 700 mmHg 21%
    16:00 +34°C° 0 mm 8 mps 700 mmHg 21%
    17:00 +33°C° 0 mm 7 mps 700 mmHg 22%
    18:00 +32°C° 0 mm 6 mps 700 mmHg 23%
    19:00 +30°C° 0 mm 5 mps 699 mmHg 24%
    20:00 +29°C° 0 mm 4 mps 700 mmHg 24%
    21:00 +28°C° 0 mm 3 mps 700 mmHg 24%
    22:00 +27°C° 0 mm 2 mps 700 mmHg 25%
    23:00 +26°C° 0 mm 1 mps 700 mmHg 25%

    30 June, Sunday

    Time Temperature Precipitation Wind Pressure Humidity
    00:00 +26°C° 0 mm 1 mps 700 mmHg 25%
    01:00 +25°C° 0 mm 1 mps 699 mmHg 25%
    02:00 +25°C° 0 mm 1 mps 699 mmHg 25%
    03:00 +25°C° 0 mm 1 mps 699 mmHg 26%
    04:00 +24°C° 0 mm 1 mps 699 mmHg 26%
    05:00 +26°C° 0 mm 1 mps 700 mmHg 23%
    06:00 +27°C° 0 mm 1 mps 700 mmHg 21%
    07:00 +29°C° 0 mm 1 mps 701 mmHg 18%
    08:00 +30°C° 0 mm 1 mps 701 mmHg 18%
    09:00 +31°C° 0 mm 1 mps 701 mmHg 17%
    10:00 +33°C° 0 mm 1 mps 701 mmHg 17%
    11:00 +34°C° 0 mm 1 mps 700 mmHg 16%
    12:00 +36°C° 0 mm 2 mps 700 mmHg 16%
    13:00 +37°C° 0 mm 3 mps 700 mmHg 15%
    14:00 +37°C° 0 mm 4 mps 700 mmHg 13%
    15:00 +37°C° 0 mm 5 mps 699 mmHg 12%
    16:00 +39°C° 0 mm 7 mps 699 mmHg 10%
    17:00 +36°C° 0 mm 6 mps 699 mmHg 11%
    18:00 +34°C° 0 mm 5 mps 699 mmHg 12%
    19:00 +32°C° 0 mm 4 mps 699 mmHg 13%
    20:00 +30°C° 0 mm 3 mps 699 mmHg 14%
    21:00 +28°C° 0 mm 2 mps 699 mmHg 15%
    22:00 +27°C° 0 mm 2 mps 699 mmHg 16%
    23:00 +26°C° 0 mm 2 mps 699 mmHg 16%

    1 July, Monday

    Time Temperature Precipitation Wind Pressure Humidity
    00:00 +26°C° 0 mm 2 mps 699 mmHg 17%
    01:00 +25°C° 0 mm 2 mps 698 mmHg 17%
    02:00 +24°C° 0 mm 2 mps 698 mmHg 18%
    03:00 +24°C° 0 mm 2 mps 698 mmHg 19%
    04:00 +23°C° 0 mm 2 mps 698 mmHg 19%
    05:00 +25°C° 0 mm 2 mps 699 mmHg 18%
    06:00 +27°C° 0 mm 1 mps 699 mmHg 16%
    07:00 +28°C° 0 mm 1 mps 700 mmHg 14%
    08:00 +30°C° 0 mm 1 mps 700 mmHg 13%
    09:00 +31°C° 0 mm 1 mps 700 mmHg 12%
    10:00 +33°C° 0 mm 1 mps 700 mmHg 10%
    11:00 +34°C° 0 mm 1 mps 700 mmHg 9%
    12:00 +36°C° 0 mm 2 mps 700 mmHg 8%
    13:00 +37°C° 0 mm 2 mps 699 mmHg 7%
    14:00 +37°C° 0 mm 3 mps 699 mmHg 8%
    15:00 +38°C° 0 mm 4 mps 699 mmHg 8%
    16:00 +39°C° 0 mm 5 mps 698 mmHg 8%
    17:00 +36°C° 0 mm 4 mps 698 mmHg 12%
    18:00 +34°C° 0 mm 4 mps 698 mmHg 16%
    19:00 +31°C° 0 mm 3 mps 697 mmHg 19%
    20:00 +30°C° 0 mm 3 mps 698 mmHg 20%
    21:00 +29°C° 0 mm 2 mps 698 mmHg 22%
    22:00 +27°C° 0 mm 2 mps 698 mmHg 23%
    23:00 +27°C° 0 mm 2 mps 698 mmHg 23%
    Show more